Погода в Ахлебинине

Россия / Калужская область     54°26′31″N   36°26′31″E
темп.,
°C
ветер,
м/с
пор.,
м/с
влажн.,
%
обл.,
%
осадки,
мм/ч
давл.,
гПа
погр.,
м
5 августа, чт
чт500:00+14св117712 0.0 101711
03:00+14юв22779 0.0 101711
06:00+14юв118147 0.0 101721
09:00+20ююв345996 0.0 1016502
12:00+18зюз4679100 1.1 1016356
15:00+16св2392100 3.6 1016112
18:00+19ююв258296 0.0 1014422
21:00+16вюв3689100 0.0 101390
6 августа, пт
пт600:00+16юв397781 0.1 1012245
03:00+14ююв259689 1.1 101289
06:00+15юв369699 0.7 1011149
09:00+19ю3888100 1.9 1011362
12:00+20ююв1485100 0.6 1011317
15:00+23юв4765100 0.7 1010825
18:00+25в4755100 0.0 1007519
21:00+20в6137228 0.0 1007365
7 августа, сб
сб700:00+16в4994100 0.6 1007145
03:00+17юв4139098 0.6 1006256
06:00+18ююв249291 0.6 100789
09:00+23ю5117496 0.6 1007645
12:00+25ю695695 0.0 10081135
15:00+28ююв6948100 0.0 10071931
18:00+25ю5857100 0.0 1008737
21:00+20зюз2288100 0.1 101034
8 августа, вс
вс800:00+19з379092 0.1 1011215
03:00+16з3692100 0.1 1013123
06:00+15з2685100 0.0 1013169
09:00+18з3566100 0.0 1014540
12:00+22з3457100 0.0 10151173
15:00+24зюз344698 0.0 10151619
18:00+24з34509 0.0 10161533
21:00+17ссз22780 0.0 101714
9 августа, пн
пн900:00+16зюз00830 0.0 101811
03:00+15з00867 0.0 101911
06:00+15ссв008623 0.0 101911
09:00+22юв115913 0.0 1019432
12:00+26ю11435 0.0 10191506
15:00+28вюв11373 0.0 10181840
18:00+26юв21430 0.0 10171114
21:00+19ю226494 0.0 101811